sat.trackr.live / text

‹ back to catalog

QIANFAN-61

NORAD 62791 · 2025-016G

PAYLOAD ACTIVE UNKNOWN

§ Identity

Operator
Country
PRC
Launch date
2025-01-23
Launch site
TAISC
Launch vehicle
Mass (kg)
RCS (m²)

External: N2YO · Heavens-Above · Gunter

§ Orbital elements

Epoch: 2026-09-22T22:02:09.112128Z

Period
106.59 min
Inclination
88.9719°
Eccentricity
0.0013172
Mean motion
13.51027820 rev/d
Perigee alt
1,058.7 km
Apogee alt
1,078.3 km
Semi-major
7,446.6 km
B*
6.1549e-5
RAAN
73.8658°
Arg perigee
238.2068°
Mean anomaly
121.7800°
Rev number
8,561

§ Raw data

QIANFAN-611 62791U 25016G   26265.91816102  .00000052  00000+0  61549-4 0  99932 62791  88.9719  73.8658 0013172 238.2068 121.7800 13.51027820 85617

JSON: /api/v1/satellites/62791 · /tle

For live sub-satellite position, see the globe view (requires WebGL).

§ Visibility from observer

Set your observer location to see the next 7 days of passes ≥ 10°. The values pass through the URL so the page stays shareable.

No JS? Fill the form by hand. The geolocation button needs JavaScript.